Regional Weather Roundup
Issued by NWS Burlington, VT

Home | Current Version | Previous Version | Text Only | Print | Product List | Glossary On
Versions: 1 2 3 4 5 6 7 8 9 10 11 12
000
ASUS41 KBTV 261630
RWRBTV
VERMONT REGIONAL WEATHER ROUNDUP
NATIONAL WEATHER SERVICE BURLINGTON VT
1200 PM EDT TUE SEP 26 2017

NOTE: "FAIR" INDICATES FEW OR NO CLOUDS BELOW 12,000 FEET WITH NO
SIGNIFICANT WEATHER AND/OR OBSTRUCTIONS TO VISIBILITY.

* THESE REPORTS ARE NOT UNDER NWS QUALITY CONTROL AND/OR DO NOT
  REPORT WEATHER SUCH AS PRECIPITATION AND FOG.

VTZ001>019-261700-
_____VERMONT_____


CITY           SKY/WX    TMP DP  RH WIND       PRES   REMARKS
BURLINGTON     PTSUNNY   82  71  69 CALM      30.01F
MONTPELIER     MOSUNNY   79  69  71 VRB3      30.09F
MORRISVILLE    MOSUNNY   78  66  66 CALM      30.05F
ST. JOHNSBURY*   N/A     78  69  73 MISG      30.02F
LYNDONVILLE*   FAIR      80  68  65 S3        30.07F
MIDDLEBURY*    FAIR      83  69  63 CALM      30.02S
RUTLAND*       MOSUNNY   81  70  69 CALM      30.05F
SPRINGFIELD    MOSUNNY   77  67  71 CALM      30.05S
HIGHGATE*      FAIR      83  71  66 SW6       30.00F
NEWPORT*       FAIR      81  69  65 CALM      30.04F
BENNINGTON     MOSUNNY   82  69  64 CALM      30.05F
MT. MANSFIELD*   N/A     73 N/A N/A CALM        N/A

_____LAKE CHAMPLAIN_____


CITY           SKY/WX    TMP DP  RH WIND       PRES   REMARKS
COLCHESTER RF*   N/A     73  72  94 S10         N/A

$$

NYZ007-026>031-035-052-083-087-261700-
_____NORTHERN NEW YORK_____


CITY           SKY/WX    TMP DP  RH WIND       PRES   REMARKS
PLATTSBURGH    MOSUNNY   76  66  71 SE6       30.00F
SARANAC LAKE   MOSUNNY   77  67  71 VRB3      30.07F
MASSENA        CLOUDY    82  70  66 S5        30.01F
OGDENSBURG*    FAIR      85  68  56 CALM      30.00F
POTSDAM*       SUNNY     82  75  78 SW3       30.01
WATERTOWN      CLOUDY    80  70  71 W3        30.00F
FT DRUM        CLOUDY    80  68  65 CALM      30.02S
ALBANY         PTSUNNY   81  68  64 W3        30.03F
GLENS FALLS    MOSUNNY   81  68  64 SE6       30.02F

$$
NHZ002-005-011-261700-
_____NEW HAMPSHIRE_____


CITY           SKY/WX    TMP DP  RH WIND       PRES   REMARKS
LEBANON        MOSUNNY   76  69  79 S3        30.04F
KEENE          MOSUNNY   83  70  64 S3        30.05F
MT WASHINGTON  MOSUNNY   63  54  72 VRB2        N/A
PLYMOUTH       FAIR      83  69  62 CALM      30.01F
WHITEFIELD     CLOUDY    83  65  54 CALM      30.05F

$$

_____REGIONAL QUEBEC LOCATIONS_____


CITY           SKY/WX    TMP DP  RH WIND       PRES   REMARKS
MONTREAL       PTSUNNY   82  70  65 S5        29.98F
QUEBEC CITY    MOSUNNY   81  68  65 SW10      29.96F
SHERBROOKE     SUNNY     82  70  65 W5        30.01F

_____REGIONAL ONTARIO LOCATIONS_____


CITY           SKY/WX    TMP DP  RH WIND       PRES   REMARKS
OTTAWA         MOSUNNY   81  68  65 VRB2      30.00F

______KEY______
VSB  - VISIBILITY IN MILES
WCI  - WIND CHILL INDEX
HX   - HEAT INDEX
$$
NNNN



USA.gov is the U.S. government's official web portal to all federal, state and local government web resources and services.